Weather History for KFLP - August, 2014

Change the Weather History Date:

Wednesday, August 6, 2014

  Actual Average (KHRO) Record (KHRO)
Temperature  
Mean Temperature 80 °F 79 °F  
Max Temperature 91 °F 90 °F 108 °F (2011)
Min Temperature 68 °F 68 °F 48 °F (1948)
Degree Days  
Heating Degree Days 0 0  
Month to date heating degree days 0  
Since 1 June heating degree days 6  
Since 1 July heating degree days 0  
Cooling Degree Days 14 14  
Month to date cooling degree days 84  
Year to date cooling degree days 902  
Since 1 June cooling degree days 763  
Growing Degree Days 30 (Base 50)    
Moisture  
Dew Point 67 °F    
Average Humidity 67    
Maximum Humidity 94    
Minimum Humidity 40    
Precipitation  
Precipitation 0.00 in 0.13 in 3.36 in (1999)
Month to date precipitation 0.77  
Year to date precipitation 26.15  
Snow  
Snow 0.00 in 0.00 in - ()
Month to date snowfall 0.0  
Since 1 June snowfall 0.0  
Since 1 July snowfall 0.0  
Snow Depth -    
Sea Level Pressure  
Sea Level Pressure 30.02 in    
Wind  
Wind Speed 3 mph (South)    
Max Wind Speed 9 mph    
Max Gust Speed -    
Visibility 9 miles    
Events      
T = Trace of Precipitation, MM = Missing Value Source: NWS Daily Summary

Daily Weather History Graph

Daily Weather History Graph

Search for Another Location

Airport or City:

Trip Planner

Search our weather history database for the weather conditions in past years. The results will help you decide how hot, cold, wet, or windy it might be!

Date:

Astronomy

Aug. 06, 2014 Rise Set
Actual Time 6:21 AM CDT 8:10 PM CDT
Civil Twilight 5:53 AM CDT 8:38 PM CDT
Nautical Twilight 5:19 AM CDT 9:12 PM CDT
Astronomical Twilight 4:42 AM CDT 9:48 PM CDT
Moon 4:27 PM CDT (8/6) 1:57 AM CDT (8/6)
Length of Visible Light 14h 45m
Length of Day
13h 49m
Waxing Gibbous, 78% of the Moon is Illuminated
Aug 6
Waxing Gibbous
Aug 10
Full
Aug 17
Last Quarter
Aug 25
New
Sep 2
First Quarter

Hourly Weather History & Observations

Time (CDT) Temp. Heat Index Dew Point Humidity Pressure Visibility Wind Dir Wind Speed Gust Speed Precip Events Conditions
12:15 AM 78.8 °F - 68.0 °F 69% 30.06 in 10.0 mi SW 5.8 mph - N/A   Clear
12:35 AM 77.0 °F - 68.0 °F 74% 30.05 in 10.0 mi SW 5.8 mph - N/A   Clear
12:55 AM 77.0 °F - 68.0 °F 74% 30.05 in 10.0 mi Calm Calm - N/A   Clear
1:15 AM 75.2 °F - 68.0 °F 78% 30.04 in 10.0 mi SW 3.5 mph - N/A   Clear
1:35 AM 75.2 °F - 68.0 °F 78% 30.04 in 10.0 mi SW 3.5 mph - N/A   Clear
1:55 AM 75.2 °F - 68.0 °F 78% 30.03 in 10.0 mi SW 3.5 mph - N/A   Clear
2:15 AM 73.4 °F - 66.2 °F 78% 30.03 in 10.0 mi Calm Calm - N/A   Clear
2:35 AM 73.4 °F - 68.0 °F 83% 30.03 in 10.0 mi Calm Calm - N/A   Clear
2:55 AM 71.6 °F - 68.0 °F 88% 30.03 in 6.0 mi Calm Calm - N/A   Clear
3:15 AM 71.6 °F - 68.0 °F 88% 30.03 in 10.0 mi Calm Calm - N/A   Clear
3:35 AM 71.6 °F - 68.0 °F 88% 30.03 in 10.0 mi Calm Calm - N/A   Clear
3:55 AM 71.6 °F - 66.2 °F 83% 30.03 in 10.0 mi Calm Calm - N/A   Clear
4:15 AM 71.6 °F - 66.2 °F 83% 30.03 in 10.0 mi Calm Calm - N/A   Clear
4:35 AM 69.8 °F - 66.2 °F 88% 30.03 in 7.0 mi Calm Calm - N/A   Clear
4:55 AM 69.8 °F - 66.2 °F 88% 30.03 in 7.0 mi Calm Calm - N/A   Clear
5:15 AM 69.8 °F - 66.2 °F 88% 30.03 in 7.0 mi Calm Calm - N/A   Clear
5:35 AM 69.8 °F - 66.2 °F 88% 30.04 in 6.0 mi Calm Calm - N/A   Clear
5:55 AM 69.8 °F - 66.2 °F 88% 30.04 in 5.0 mi Calm Calm - N/A   Clear
6:15 AM 68.0 °F - 66.2 °F 94% 30.05 in 4.0 mi Calm Calm - N/A   Clear
6:35 AM 68.0 °F - 66.2 °F 94% 30.06 in 5.0 mi Calm Calm - N/A   Clear
6:55 AM 69.8 °F - 66.2 °F 88% 30.06 in 5.0 mi Calm Calm - N/A   Clear
7:15 AM 69.8 °F - 66.2 °F 88% 30.06 in 6.0 mi Calm Calm - N/A   Clear
7:35 AM 69.8 °F - 66.2 °F 88% 30.07 in 7.0 mi Calm Calm - N/A   Clear
7:55 AM 71.6 °F - 66.2 °F 83% 30.07 in 10.0 mi Calm Calm - N/A   Clear
8:15 AM 73.4 °F - 68.0 °F 83% 30.08 in 9.0 mi Calm Calm - N/A   Clear
8:35 AM 73.4 °F - 68.0 °F 83% 30.08 in 9.0 mi Calm Calm - N/A   Clear
8:55 AM 73.4 °F - 69.8 °F 88% 30.09 in 10.0 mi Calm Calm - N/A   Clear
9:15 AM 77.0 °F - 68.0 °F 74% 30.08 in 10.0 mi Calm Calm - N/A   Clear
9:35 AM 78.8 °F - 66.2 °F 65% 30.08 in 10.0 mi SSE 3.5 mph - N/A   Clear
9:55 AM 80.6 °F 82.7 °F 66.2 °F 61% 30.08 in 10.0 mi Calm Calm - N/A   Clear
10:15 AM 80.6 °F 82.7 °F 66.2 °F 61% 30.08 in 10.0 mi Calm Calm - N/A   Clear
10:35 AM 82.4 °F 84.6 °F 66.2 °F 58% 30.07 in 10.0 mi SSE 3.5 mph - N/A   Clear
10:55 AM 84.2 °F 86.6 °F 66.2 °F 55% 30.07 in 10.0 mi SSW 5.8 mph - N/A   Clear
11:15 AM 84.2 °F 86.6 °F 66.2 °F 55% 30.07 in 10.0 mi SSW 4.6 mph - N/A   Clear
11:35 AM 86.0 °F 87.3 °F 64.4 °F 48% 30.06 in 10.0 mi WSW 9.2 mph - N/A   Clear
11:55 AM 87.8 °F 90.4 °F 66.2 °F 49% 30.06 in 10.0 mi SW 4.6 mph - N/A   Clear
12:15 PM 87.8 °F 89.4 °F 64.4 °F 46% 30.06 in 10.0 mi SW 6.9 mph - N/A   Clear
12:35 PM 87.8 °F 89.4 °F 64.4 °F 46% 30.05 in 10.0 mi WSW 6.9 mph - N/A   Clear
12:55 PM 89.6 °F 91.1 °F 64.4 °F 43% 30.04 in 10.0 mi WSW 8.1 mph - N/A   Clear
1:15 PM 89.6 °F 92.2 °F 66.2 °F 46% 30.04 in 10.0 mi South 6.9 mph - N/A   Clear
1:35 PM 89.6 °F 91.1 °F 64.4 °F 43% 30.03 in 10.0 mi SSW 5.8 mph - N/A   Clear
1:55 PM 89.6 °F 90.1 °F 62.6 °F 40% 30.03 in 10.0 mi South 4.6 mph - N/A   Clear
2:15 PM 91.4 °F 93.2 °F 64.4 °F 41% 30.03 in 10.0 mi South 5.8 mph - N/A   Clear
2:35 PM 89.6 °F 91.1 °F 64.4 °F 43% 30.02 in 10.0 mi SSW 6.9 mph - N/A   Clear
2:55 PM 89.6 °F 91.1 °F 64.4 °F 43% 30.02 in 10.0 mi South 4.6 mph - N/A   Unknown
3:15 PM 89.6 °F 91.1 °F 64.4 °F 43% 30.01 in 10.0 mi South 6.9 mph - N/A   Unknown
3:35 PM 89.6 °F 91.1 °F 64.4 °F 43% 30.01 in 10.0 mi Calm Calm - N/A   Unknown
3:55 PM 89.6 °F 91.1 °F 64.4 °F 43% 30.00 in 10.0 mi South 3.5 mph - N/A   Unknown
4:15 PM 89.6 °F 91.1 °F 64.4 °F 43% 29.99 in 10.0 mi SW 5.8 mph - N/A   Unknown
4:35 PM 89.6 °F 92.2 °F 66.2 °F 46% 29.98 in 10.0 mi Calm Calm - N/A   Unknown
4:55 PM 89.6 °F 92.2 °F 66.2 °F 46% 29.98 in 10.0 mi SSE 5.8 mph - N/A   Clear
5:15 PM 89.6 °F 94.7 °F 69.8 °F 52% 29.97 in 10.0 mi South 3.5 mph - N/A   Unknown
5:35 PM 87.8 °F 91.4 °F 68.0 °F 52% 29.97 in 10.0 mi SE 4.6 mph - N/A   Unknown
5:55 PM 89.6 °F 94.7 °F 69.8 °F 52% 29.96 in 10.0 mi SSE 4.6 mph - N/A   Unknown
6:15 PM 87.8 °F 92.6 °F 69.8 °F 55% 29.96 in 10.0 mi SSE 6.9 mph - N/A   Unknown
6:35 PM 87.8 °F 91.4 °F 68.0 °F 52% 29.96 in 10.0 mi SSE 3.5 mph - N/A   Unknown
6:55 PM 87.8 °F 92.6 °F 69.8 °F 55% 29.96 in 10.0 mi SE 4.6 mph - N/A   Unknown
7:15 PM 86.0 °F 90.4 °F 69.8 °F 58% 29.96 in 10.0 mi SE 3.5 mph - N/A   Clear
7:35 PM 84.2 °F 88.4 °F 69.8 °F 62% 29.97 in 10.0 mi SE 3.5 mph - N/A   Clear
7:55 PM 84.2 °F 88.4 °F 69.8 °F 62% 29.97 in 10.0 mi SE 3.5 mph - N/A   Clear
8:15 PM 82.4 °F 86.3 °F 69.8 °F 66% 29.96 in 10.0 mi SE 4.6 mph - N/A   Clear
8:35 PM 80.6 °F 83.9 °F 69.8 °F 70% 29.97 in 9.0 mi ESE 3.5 mph - N/A   Clear
8:55 PM 80.6 °F 83.9 °F 69.8 °F 70% 29.97 in 9.0 mi Calm Calm - N/A   Clear
9:15 PM 80.6 °F 83.9 °F 69.8 °F 70% 29.97 in 10.0 mi Calm Calm - N/A   Clear
9:35 PM 78.8 °F - 69.8 °F 74% 29.98 in 10.0 mi Calm Calm - N/A   Clear
9:55 PM 78.8 °F - 69.8 °F 74% 29.98 in 10.0 mi Calm Calm - N/A   Clear
10:15 PM 78.8 °F - 69.8 °F 74% 29.98 in 8.0 mi Calm Calm - N/A   Clear
10:35 PM 77.0 °F - 69.8 °F 78% 29.98 in 9.0 mi Calm Calm - N/A   Clear
11:15 PM 75.2 °F - 69.8 °F 83% 29.98 in 10.0 mi Calm Calm - N/A   Clear
11:35 PM 75.2 °F - 69.8 °F 83% 29.98 in 10.0 mi Calm Calm - N/A   Clear
11:55 PM 75.2 °F - 69.8 °F 83% 29.97 in 10.0 mi Calm Calm - N/A   Clear